TimeCST,TemperatureF,Dew PointF,Humidity,Sea Level PressureIn,VisibilityMPH,Wind Direction,Wind SpeedMPH,Gust SpeedMPH,PrecipitationIn,Events,Conditions,WindDirDegrees,DateUTC
12:53 AM,73.0,70.0,90,29.81,10.0,SSE,23.0,-,N/A,,Clear,160,2013-02-10 06:53:00
1:53 AM,73.0,70.0,90,29.78,10.0,SSE,23.0,33.4,N/A,,Clear,160,2013-02-10 07:53:00
2:53 AM,73.0,70.0,90,29.76,10.0,South,26.5,34.5,N/A,,Partly Cloudy,170,2013-02-10 08:53:00
3:53 AM,73.0,70.0,90,29.76,10.0,South,21.9,27.6,N/A,,Partly Cloudy,170,2013-02-10 09:53:00
4:53 AM,73.0,70.0,90,29.76,10.0,South,25.3,31.1,N/A,,Clear,170,2013-02-10 10:53:00
5:53 AM,73.0,70.0,90,29.78,10.0,South,18.4,27.6,N/A,,Clear,180,2013-02-10 11:53:00
6:53 AM,73.0,70.0,90,29.82,10.0,South,15.0,-,N/A,,Partly Cloudy,180,2013-02-10 12:53:00
7:18 AM,73.4,69.8,88,29.83,9.0,South,12.7,-,N/A,,Mostly Cloudy,190,2013-02-10 13:18:00
7:53 AM,73.0,71.1,93,29.83,8.0,South,17.3,27.6,N/A,,Mostly Cloudy,190,2013-02-10 13:53:00
8:06 AM,73.4,71.6,94,29.83,8.0,South,19.6,-,N/A,,Scattered Clouds,180,2013-02-10 14:06:00
8:53 AM,77.0,71.1,82,29.84,10.0,South,21.9,28.8,N/A,,Clear,180,2013-02-10 14:53:00
9:53 AM,81.0,70.0,69,29.85,10.0,South,27.6,34.5,N/A,,Clear,190,2013-02-10 15:53:00
10:53 AM,82.9,69.1,63,29.85,10.0,South,32.2,40.3,N/A,,Clear,180,2013-02-10 16:53:00
11:53 AM,84.9,68.0,57,29.83,10.0,South,29.9,38.0,N/A,,Clear,180,2013-02-10 17:53:00
12:53 PM,86.0,70.0,59,29.81,10.0,South,25.3,35.7,N/A,,Clear,190,2013-02-10 18:53:00
1:53 PM,86.0,70.0,59,29.78,10.0,South,21.9,33.4,N/A,,Partly Cloudy,170,2013-02-10 19:53:00
2:53 PM,84.0,70.0,63,29.76,10.0,SSE,21.9,25.3,N/A,,Scattered Clouds,160,2013-02-10 20:53:00
3:53 PM,82.9,71.1,67,29.75,10.0,SSE,18.4,-,N/A,,Scattered Clouds,160,2013-02-10 21:53:00
4:19 PM,82.4,71.6,70,29.75,10.0,SSE,16.1,24.2,N/A,,Mostly Cloudy,150,2013-02-10 22:19:00
4:26 PM,82.4,71.6,70,29.75,10.0,SE,18.4,-,N/A,,Scattered Clouds,140,2013-02-10 22:26:00
4:53 PM,81.0,70.0,69,29.75,10.0,SSE,16.1,-,N/A,,Scattered Clouds,160,2013-02-10 22:53:00
5:46 PM,78.8,69.8,74,29.77,9.0,SSE,15.0,-,N/A,,Mostly Cloudy,150,2013-02-10 23:46:00
5:53 PM,77.0,70.0,79,29.77,9.0,SSE,15.0,-,N/A,,Scattered Clouds,150,2013-02-10 23:53:00
6:01 PM,77.0,69.8,78,29.77,9.0,SE,15.0,-,N/A,,Mostly Cloudy,140,2013-02-11 00:01:00
6:53 PM,75.9,71.1,85,29.78,10.0,SE,13.8,-,N/A,,Mostly Cloudy,140,2013-02-11 00:53:00
7:53 PM,75.0,71.1,87,29.80,10.0,SE,12.7,-,N/A,,Mostly Cloudy,140,2013-02-11 01:53:00
8:53 PM,73.9,71.1,91,29.81,10.0,SE,10.4,-,N/A,,Mostly Cloudy,140,2013-02-11 02:53:00
9:53 PM,73.9,71.1,91,29.84,10.0,SE,6.9,-,N/A,,Overcast,140,2013-02-11 03:53:00
10:53 PM,73.9,71.1,91,29.86,10.0,ESE,5.8,-,N/A,,Overcast,120,2013-02-11 04:53:00
11:04 PM,73.4,71.6,94,29.87,10.0,SE,6.9,-,N/A,,Overcast,130,2013-02-11 05:04:00
11:15 PM,73.4,71.6,94,29.86,10.0,ESE,6.9,-,N/A,,Overcast,120,2013-02-11 05:15:00
11:53 PM,73.9,71.1,91,29.87,10.0,East,5.8,-,N/A,,Overcast,100,2013-02-11 05:53:00